Regional Weather Roundup
Issued by NWS

Home | Current Version | Previous Version | Text Only | Print | Product List | Glossary On
Versions: 1 2 3 4 5 6 7 8 9 10 11 12 13 14 15 16 17 18 19 20 21 22 23 24 25 26 27 28 29 30 31 32 33 34 35 36 37 38 39 40 41 42 43 44 45 46 47 48 49 50
000
ASUS43 KLMK 202002
RWRKY
KENTUCKY REGIONAL WEATHER ROUNDUP
NATIONAL WEATHER SERVICE LOUISVILLE KY
400 PM EDT MON OCT 20 2014

NOTE "FAIR" INDICATES FEW OR NO CLOUDS BELOW 12,000 FEET
WITH NO SIGNIFICANT WEATHER AND/OR OBSTRUCTIONS TO VISIBILITY.

KYZ001>023-026-027-061>063-070>075-202100-
WESTERN AND SOUTH CENTRAL KENTUCKY

CITY           SKY/WX    TMP DP  RH WIND       PRES   REMARKS
PADUCAH        SUNNY     73  54  51 SW12      29.94F
HENDERSON      SUNNY     73  52  46 SW16      29.91S
OWENSBORO      SUNNY     72  54  53 SW17      29.91F
HOPKINSVILLE   SUNNY     69  52  55 W14       29.97F
BOWLING GREEN  CLOUDY    67  48  50 SW14      29.97F
GLASGOW        NOT AVBL
$$

KYZ024-025-028>034-038-045-046-053-202100-
NORTH CENTRAL KENTUCKY

CITY           SKY/WX    TMP DP  RH WIND       PRES   REMARKS
LOUISVILLE/SDF MOSUNNY   69  51  52 SW28      29.88F
LOUISVILLE/LOU SUNNY     67  51  56 SW13G22   29.89F
FORT KNOX      MOSUNNY   67  51  55 SW15      29.89F
$$

KYZ035>037-039>044-047>052-055>060-089>105-202100-
NORTHEAST KENTUCKY

CITY           SKY/WX    TMP DP  RH WIND       PRES   REMARKS
LEXINGTON      CLOUDY    63  48  58 SW17      29.92F
COVINGTON      LGT RAIN  62  47  57 SW13      29.87R
FRANKFORT      PTSUNNY   63  49  60 SW14G25   29.90F
$$

KYZ054-064>069-076>088-106>120-202100-
SOUTHEAST KENTUCKY

CITY           SKY/WX    TMP DP  RH WIND       PRES   REMARKS
JACKSON        CLOUDY    57  49  74 CALM      29.97F
LONDON         CLOUDY    63  49  60 W7        29.97F
SOMERSET       CLOUDY    61  48  63 SW10      29.99S
MIDDLESBORO    CLOUDY    63  49  61 S6        29.98F
MONTICELLO     MOCLDY    63  50  62 SW9       30.00F
$$




USA.gov is the U.S. government's official web portal to all federal, state and local government web resources and services.